sat.trackr.live / text

‹ back to catalog

KUIPER-00090

NORAD 64835 · 2025-151V

PAYLOAD ACTIVE UNKNOWN

§ Identity

Operator
Country
US
Launch date
2025-07-16
Launch site
AFETR
Launch vehicle
Mass (kg)
RCS (m²)

External: N2YO · Heavens-Above · Gunter

§ Orbital elements

Epoch: 2026-09-21T20:34:22.952640Z

Period
97.30 min
Inclination
51.8987°
Eccentricity
0.0000913
Mean motion
14.79923122 rev/d
Perigee alt
628.9 km
Apogee alt
630.2 km
Semi-major
7,007.7 km
B*
2.5935e-4
RAAN
130.6365°
Arg perigee
104.2548°
Mean anomaly
255.8516°
Rev number
6,466

§ Raw data

KUIPER-000901 64835U 25151V   26264.85721010  .00001756  00000+0  25935-3 0  99992 64835  51.8987 130.6365 0000913 104.2548 255.8516 14.79923122 64661

JSON: /api/v1/satellites/64835 · /tle

For live sub-satellite position, see the globe view (requires WebGL).

§ Visibility from observer

Set your observer location to see the next 7 days of passes ≥ 10°. The values pass through the URL so the page stays shareable.

No JS? Fill the form by hand. The geolocation button needs JavaScript.